Wind_Speed
11 12 13 14 14 15 15 15 16 16 16 17 17 17 17 17 17 18 18 18 18 18 18 19 19 19 20 20 20 20 20 20 19 19 19 19 19 19 19 19 19 19 19
11 12 13 14 14 15 15 16 16 17 17 17 17 17 18 18 18 18 18 18 19 19 19 19 20 20 20 20 20 20 20 20 20 19 19 19 19 19 19 19 19 19 19
11 12 13 14 14 15 16 16 17 17 17 17 17 18 18 18 19 19 19 19 19 19 20 19 19 19 20 20 19 19 19 19 19 19 19 19 19 19 19 19 19 19 19
11 12 13 14 15 15 16 16 17 17 17 18 18 18 19 19 19 19 19 19 19 19 19 19 19 19 19 19 19 19 19 18 18 18 18 18 18 18 18 19 19 19 19
10 12 13 14 15 15 16 16 17 17 18 18 19 19 19 19 19 19 19 19 19 19 19 19 19 19 18 18 18 18 18 17 17 17 17 17 18 18 18 18 18 19 19
11 12 13 14 15 16 16 17 17 18 18 19 19 19 19 19 19 19 19 19 19 19 19 18 18 18 18 18 18 18 18 17 17 17 17 18 18 18 18 18 18 19 19
12 13 14 14 15 16 17 18 18 19 19 19 19 19 19 19 19 19 19 19 19 19 19 18 18 18 18 18 18 18 18 18 18 18 18 18 18 18 18 19 19 20 20
13 14 15 16 17 17 18 19 19 19 20 20 20 20 20 20 20 20 20 20 20 20 20 20 19 19 19 19 18 19 19 19 19 19 19 19 19 19 19 19 20 20 20
15 15 17 18 19 19 20 20 21 21 21 21 22 22 22 22 22 22 22 22 22 22 21 21 20 20 20 20 20 20 20 20 20 20 20 20 20 20 21 21 21 21 22
17 17 18 19 20 21 21 22 22 23 23 23 23 23 23 23 24 24 24 24 24 23 23 23 22 22 22 22 23 23 22 22 22 22 22 22 22 22 22 23 23 23 24
18 18 19 20 21 22 23 23 23 24 24 24 25 25 25 25 25 26 26 25 25 25 25 25 25 25 25 25 25 25 25 25 25 25 25 25 25 25 25 26 26 26 27
19 19 20 20 21 22 23 24 24 25 25 25 26 26 26 26 26 27 27 27 27 27 27 27 27 27 28 28 28 28 28 28 28 28 29 29 29 29 29 30 30 30 30
20 21 21 21 22 23 23 24 25 25 25 26 26 27 27 27 28 28 28 28 28 29 29 29 30 30 30 31 31 31 31 32 32 33 33 33 34 34 34 34 34 35 35
21 22 22 22 22 23 24 24 24 25 26 26 26 27 27 28 28 29 29 29 30 30 31 31 32 33 33 34 34 35 35 36 36 37 37 38 38 39 39 39 40 40 40
22 22 22 23 23 23 24 24 24 25 25 26 26 27 27 28 29 29 29 30 31 32 32 33 34 34 35 36 37 38 39 39 40 40 41 42 43 43 44 44 45 45 45
22 22 22 23 23 24 24 24 24 24 25 25 26 27 28 28 29 30 30 31 32 33 34 34 35 36 37 38 39 40 41 42 43 43 44 45 46 47 47 48 49 50 50
22 22 22 23 23 23 24 24 24 25 25 26 27 28 29 29 30 30 31 32 33 33 34 35 36 37 38 39 39 41 42 43 43 44 46 46 48 49 50 51 52 53 54
22 22 22 23 23 23 24 25 25 26 26 27 28 29 30 30 31 31 32 32 33 34 34 35 36 37 38 39 40 41 42 43 44 45 46 47 48 49 50 52 53 54 55
22 22 22 23 23 24 25 25 26 27 28 29 30 31 31 32 32 32 32 33 34 34 34 35 36 37 38 39 40 41 42 43 44 45 46 48 49 50 51 52 53 55 56
21 22 22 23 23 24 25 26 27 28 29 30 31 32 32 33 33 33 34 34 34 35 35 36 37 38 39 40 41 41 42 43 44 45 47 48 49 50 51 52 53 55 56
22 22 22 23 23 25 26 27 28 29 30 30 31 32 32 32 33 33 33 33 34 34 35 36 37 38 40 41 42 42 42 43 45 46 47 48 49 51 52 53 55 56 58
22 23 23 24 25 27 28 29 29 30 30 30 30 31 31 31 32 32 33 34 35 36 37 38 39 40 41 43 44 45 44 44 46 48 49 50 52 53 55 56 58 60 61
23 24 25 26 27 28 29 30 30 31 31 31 31 32 32 33 33 34 35 36 37 38 39 40 42 43 44 45 48 50 51 51 51 51 53 55 57 58 59 60 62 64 66
24 25 26 28 29 30 31 32 32 32 32 32 32 33 34 35 36 36 37 38 39 40 42 44 46 47 49 50 52 54 57 58 59 58 57 59 61 63 64 66 67 68 70
26 27 29 30 31 32 33 33 33 33 33 34 35 35 36 37 38 39 40 41 43 45 47 48 50 52 54 55 57 59 60 62 64 66 65 64 65 66 69 71 72 74 75
28 29 31 32 33 34 34 35 35 35 36 36 37 38 39 40 41 42 44 45 47 49 51 52 54 56 58 60 61 63 65 66 68 70 72 71 72 71 73 74 76 78 79
Wind_Direction
262 263 264 266 268 270 271 273 275 277 278 278 279 279 281 282 282 282 282 281 281 281 280 280 280 278 277 277 276 276 275 275 275 276 277 277 277 277 277 277 277 277 276
268 267 268 270 271 272 273 274 275 276 277 278 278 279 280 281 281 281 281 281 281 282 282 281 280 279 278 277 276 275 275 275 275 276 276 276 276 276 276 276 276 276 276
275 274 274 275 276 276 276 276 277 277 277 278 279 280 281 281 281 281 281 281 282 282 282 281 280 279 278 277 276 275 275 274 274 275 275 276 276 276 276 276 276 276 277
279 278 278 279 279 279 278 278 278 278 279 280 281 281 281 281 281 281 281 281 281 282 281 280 279 278 278 277 276 276 276 275 274 274 275 275 276 276 276 277 277 278 278
280 279 279 280 280 279 279 279 280 280 281 281 281 281 281 281 280 280 281 281 282 281 281 280 279 278 278 277 277 276 276 275 274 274 275 276 276 277 277 278 278 279 279
285 284 283 283 282 281 280 280 281 282 282 282 283 282 282 281 281 281 281 282 282 281 280 279 278 277 277 277 276 276 276 275 275 275 276 276 277 277 278 278 279 279 280
288 287 286 285 284 283 283 282 283 283 283 283 283 283 282 282 282 282 281 281 282 281 279 278 277 276 275 275 276 276 276 276 275 276 277 277 278 278 279 280 280 280 281
287 287 286 286 286 285 284 284 283 283 283 284 284 283 282 282 282 282 281 281 281 280 279 278 277 275 274 274 274 275 275 275 275 276 276 277 278 279 280 281 281 282 283
285 285 285 286 286 286 285 285 284 284 284 283 284 283 282 282 282 281 281 281 280 279 278 276 275 274 274 273 273 273 273 273 273 274 274 276 277 278 279 280 281 281 282
284 284 284 285 285 285 285 285 284 284 284 283 283 283 283 282 281 281 280 280 279 278 276 275 273 272 272 272 272 272 272 271 272 272 273 274 275 276 277 278 278 279 280
283 284 283 283 284 284 284 284 284 284 284 284 284 283 283 282 281 281 280 279 278 276 275 273 272 271 271 271 271 271 271 270 270 271 271 272 273 274 275 275 276 277 277
286 285 285 284 284 284 284 284 284 284 284 284 284 284 283 282 281 280 279 278 277 276 275 273 272 271 271 270 270 270 270 270 269 270 270 271 271 272 272 273 274 274 275
287 287 287 287 286 285 285 285 285 285 285 285 285 284 284 283 282 280 279 278 277 276 275 274 273 272 271 270 269 269 269 269 269 269 269 270 270 271 271 271 271 272 272
287 288 288 288 288 288 287 286 286 286 286 286 285 284 284 284 283 281 280 279 277 276 275 274 273 272 271 270 270 269 269 269 269 269 269 270 270 270 270 271 271 271 271
288 289 289 290 289 289 288 288 288 288 288 288 287 287 286 285 284 283 282 280 279 277 276 276 275 274 273 272 271 270 269 269 269 269 269 270 270 270 270 270 270 270 270
287 288 289 290 290 290 290 290 290 290 289 289 289 288 287 287 286 285 283 282 280 279 279 278 277 276 275 274 273 273 272 272 272 271 271 271 271 271 271 271 271 270 270
286 288 289 289 289 290 290 291 291 291 290 290 290 290 289 288 287 286 285 283 282 281 281 280 279 278 278 277 276 276 275 275 275 274 274 274 273 273 273 273 272 272 272
285 286 287 288 288 289 289 289 289 290 290 290 290 290 290 289 288 287 285 285 284 284 283 282 281 280 279 279 278 278 277 277 277 277 276 276 275 275 274 274 274 274 274
284 285 286 287 288 289 289 289 290 290 291 291 291 290 290 289 288 287 286 286 285 285 284 284 283 283 282 282 281 280 280 279 279 278 278 277 277 276 275 275 274 274 274
283 286 287 288 289 290 290 291 291 291 292 291 291 290 290 289 288 287 287 287 286 286 286 285 285 284 284 283 283 282 282 281 281 280 279 279 279 278 277 276 275 275 275
285 287 289 291 291 291 292 292 292 293 293 292 291 291 290 290 290 290 289 288 288 288 288 287 287 287 287 286 285 284 284 284 283 282 281 281 280 279 278 278 277 276 275
288 290 292 293 293 294 294 294 294 294 294 293 293 292 291 291 291 291 290 290 290 289 289 289 289 289 290 289 288 287 285 284 284 283 283 282 281 280 279 279 279 278 276
290 292 293 294 295 296 295 295 295 295 294 294 293 292 292 292 291 291 291 291 291 291 291 291 291 291 291 291 290 290 288 286 283 283 283 283 282 281 280 278 278 277 277
292 294 294 295 295 296 296 296 296 296 295 294 293 292 292 292 292 291 291 291 291 291 291 291 292 292 291 291 291 291 290 290 288 285 283 283 283 282 281 280 279 277 276
293 294 295 295 295 296 296 296 295 295 294 294 293 292 292 292 292 292 292 292 292 292 293 293 293 293 293 292 292 292 291 291 290 289 287 285 284 283 283 282 281 280 278
294 295 295 295 295 296 296 296 294 294 294 293 293 292 292 292 292 293 293 293 293 293 293 293 293 294 294 293 293 293 293 292 291 290 289 288 286 285 284 283 282 281 279
Height
5875 5876 5877 5877 5878 5878 5878 5879 5879 5879 5879 5879 5879 5879 5879 5879 5879 5879 5879 5879 5879 5879 5879 5879 5879 5879 5879 5879 5879 5879 5879 5879 5879 5879 5879 5879 5880 5880 5880 5880 5881 5881 5881
5874 5874 5875 5875 5876 5876 5876 5876 5877 5877 5877 5877 5877 5877 5877 5877 5877 5877 5877 5877 5877 5876 5876 5876 5876 5876 5876 5876 5876 5876 5876 5876 5876 5877 5877 5877 5877 5877 5877 5878 5878 5878 5878
5872 5872 5873 5873 5873 5874 5874 5874 5874 5874 5874 5874 5874 5874 5874 5874 5874 5874 5874 5874 5874 5873 5873 5873 5873 5873 5873 5873 5873 5873 5873 5873 5874 5874 5874 5874 5874 5874 5874 5875 5875 5875 5875
5870 5870 5871 5871 5871 5871 5871 5871 5872 5872 5872 5872 5871 5871 5871 5871 5871 5871 5871 5871 5871 5870 5870 5870 5870 5870 5870 5870 5870 5870 5870 5870 5871 5871 5871 5871 5871 5871 5871 5871 5871 5871 5872
5868 5869 5869 5869 5869 5869 5869 5869 5869 5869 5869 5869 5869 5869 5868 5868 5868 5868 5868 5868 5867 5867 5867 5867 5867 5867 5867 5867 5867 5867 5867 5867 5868 5868 5868 5868 5868 5868 5868 5868 5868 5868 5868
5867 5867 5866 5867 5867 5867 5866 5866 5866 5866 5866 5866 5866 5866 5865 5865 5865 5865 5864 5864 5864 5864 5864 5864 5864 5864 5864 5864 5864 5864 5864 5864 5864 5865 5865 5864 5864 5864 5864 5864 5864 5864 5864
5865 5865 5864 5864 5864 5864 5864 5864 5864 5864 5863 5863 5863 5863 5862 5862 5862 5862 5861 5861 5861 5861 5861 5861 5861 5861 5861 5861 5861 5861 5861 5861 5861 5861 5861 5861 5861 5861 5861 5861 5861 5861 5860
5862 5862 5862 5862 5861 5861 5861 5861 5861 5861 5860 5860 5860 5860 5859 5859 5858 5858 5858 5858 5857 5857 5857 5857 5857 5857 5857 5857 5857 5857 5857 5857 5857 5858 5857 5857 5857 5857 5857 5857 5857 5857 5856
5859 5860 5859 5859 5858 5858 5858 5858 5857 5857 5857 5856 5856 5856 5856 5855 5855 5854 5854 5854 5853 5853 5853 5853 5853 5853 5853 5853 5853 5853 5853 5853 5853 5853 5853 5853 5853 5853 5853 5853 5852 5852 5852
5857 5857 5856 5855 5855 5855 5854 5854 5854 5853 5853 5852 5852 5852 5851 5851 5851 5850 5850 5849 5849 5849 5849 5849 5849 5849 5849 5849 5849 5849 5849 5849 5849 5849 5849 5848 5848 5848 5848 5848 5848 5847 5847
5854 5853 5853 5852 5851 5851 5850 5850 5849 5849 5849 5848 5848 5847 5847 5846 5846 5845 5845 5845 5844 5844 5844 5844 5844 5844 5844 5844 5843 5843 5843 5843 5843 5843 5843 5843 5843 5843 5843 5843 5842 5842 5841
5850 5850 5849 5849 5848 5847 5846 5846 5845 5844 5844 5843 5843 5842 5842 5841 5841 5840 5840 5839 5839 5839 5838 5838 5838 5838 5838 5838 5838 5838 5838 5838 5838 5837 5837 5837 5837 5837 5836 5836 5836 5835 5835
5847 5846 5845 5845 5844 5843 5842 5841 5840 5840 5839 5838 5838 5837 5836 5836 5835 5835 5834 5834 5833 5833 5832 5832 5832 5832 5832 5832 5831 5831 5831 5831 5831 5831 5830 5830 5830 5829 5829 5829 5828 5828 5827
5843 5842 5841 5840 5839 5839 5838 5837 5836 5835 5834 5833 5832 5831 5831 5830 5829 5829 5828 5828 5827 5826 5826 5825 5825 5825 5824 5824 5824 5824 5823 5823 5823 5823 5822 5822 5821 5821 5820 5820 5820 5819 5819
5839 5838 5837 5836 5835 5834 5833 5832 5831 5830 5829 5828 5826 5826 5825 5824 5823 5822 5822 5821 5820 5819 5819 5818 5817 5817 5816 5816 5815 5815 5815 5815 5814 5814 5813 5813 5812 5811 5811 5810 5810 5809 5809
5835 5834 5833 5832 5831 5829 5828 5827 5826 5825 5823 5822 5821 5820 5819 5818 5817 5816 5815 5814 5813 5812 5811 5810 5809 5809 5808 5807 5807 5806 5806 5805 5805 5805 5804 5803 5802 5801 5800 5800 5799 5798 5798
5830 5829 5828 5827 5826 5825 5824 5822 5821 5819 5818 5817 5815 5814 5812 5811 5810 5809 5807 5806 5805 5804 5803 5802 5801 5800 5799 5799 5798 5797 5796 5796 5795 5795 5794 5793 5792 5791 5790 5788 5787 5786 5786
5826 5825 5824 5823 5821 5820 5819 5817 5815 5814 5812 5811 5809 5807 5806 5804 5803 5801 5800 5798 5797 5796 5795 5793 5792 5791 5790 5789 5789 5788 5787 5786 5785 5784 5783 5782 5781 5780 5779 5777 5776 5774 5773
5821 5820 5819 5818 5817 5815 5813 5812 5810 5808 5806 5805 5803 5801 5799 5797 5795 5794 5792 5791 5789 5788 5786 5785 5783 5782 5781 5780 5778 5778 5777 5776 5774 5773 5772 5770 5769 5768 5767 5765 5763 5761 5760
5817 5815 5814 5813 5811 5810 5808 5806 5804 5802 5800 5798 5796 5794 5792 5790 5788 5786 5785 5783 5781 5780 5778 5776 5774 5773 5771 5769 5768 5767 5766 5765 5763 5761 5760 5758 5757 5755 5753 5752 5750 5748 5746
5811 5810 5809 5808 5806 5804 5802 5800 5798 5796 5794 5791 5789 5787 5785 5782 5780 5778 5777 5775 5773 5771 5769 5767 5765 5763 5761 5759 5757 5756 5756 5754 5751 5749 5748 5746 5744 5742 5740 5738 5736 5734 5732
5806 5805 5803 5802 5800 5798 5796 5794 5791 5789 5787 5784 5782 5780 5777 5775 5773 5771 5769 5767 5765 5763 5760 5758 5756 5753 5751 5748 5745 5743 5744 5744 5741 5737 5735 5733 5731 5729 5726 5723 5721 5718 5716
5801 5799 5798 5796 5794 5792 5789 5787 5785 5782 5780 5777 5775 5773 5770 5768 5765 5763 5761 5758 5756 5754 5751 5748 5746 5743 5741 5738 5733 5730 5728 5727 5727 5726 5722 5718 5715 5713 5711 5708 5705 5702 5699
5795 5794 5792 5790 5787 5785 5782 5780 5777 5775 5772 5770 5768 5765 5763 5760 5757 5755 5752 5750 5747 5744 5741 5738 5735 5731 5728 5725 5721 5717 5713 5709 5706 5707 5708 5704 5699 5695 5692 5689 5686 5684 5680
5789 5788 5785 5783 5780 5778 5775 5773 5770 5767 5765 5762 5760 5757 5754 5752 5749 5746 5743 5740 5737 5734 5730 5727 5723 5719 5715 5711 5707 5703 5698 5693 5688 5684 5684 5685 5682 5677 5673 5668 5664 5661 5658
5783 5781 5779 5776 5774 5771 5768 5765 5762 5760 5757 5754 5751 5749 5746 5743 5740 5736 5733 5729 5726 5722 5718 5714 5710 5706 5701 5696 5691 5686 5681 5676 5671 5665 5661 5659 5657 5656 5651 5647 5642 5637 5632